Keps
Threads by month
- ----- 2025 -----
- February
- January
- ----- 2024 -----
- December
- November
- October
- September
- August
- July
- June
- May
- April
- March
- February
- January
- ----- 2023 -----
- December
- November
- October
- September
- August
- July
- June
- May
- April
- March
- February
- January
- ----- 2022 -----
- December
- November
- October
- September
- August
- July
- June
- May
- April
- March
- February
- January
- ----- 2021 -----
- December
- November
- October
- September
- August
- July
- June
- May
- April
- March
- February
- January
- ----- 2020 -----
- December
- November
- October
- September
- August
- July
- June
- May
- April
- March
- February
- January
- ----- 2019 -----
- December
- November
- October
- September
- August
- July
- June
- May
- April
- March
- February
- January
- ----- 2018 -----
- December
- November
- October
- September
- August
- July
- June
- May
- April
- March
- February
- January
- ----- 2017 -----
- December
- November
- October
- September
- August
- July
- June
- May
- April
- March
- February
- January
- ----- 2016 -----
- December
- November
- October
- September
- August
- July
- June
- May
- April
- March
- February
- January
- ----- 2015 -----
- December
- November
- October
- September
- August
- July
- June
- May
- April
- March
- February
- January
- ----- 2014 -----
- December
- November
- October
- September
- August
- July
- June
- May
- April
- March
- February
- January
- ----- 2013 -----
- December
- November
- October
- September
- August
- July
- June
- May
- April
- March
- February
- January
- ----- 2012 -----
- December
- November
- October
- September
- August
- July
- June
- May
- April
- March
- February
- January
- ----- 2011 -----
- December
- November
- October
- September
- August
- July
- June
- May
- April
- March
- February
- January
- ----- 2010 -----
- December
- November
- October
- September
- August
- July
- June
- May
- April
- March
- February
- January
- ----- 2009 -----
- December
- November
- October
- September
- August
- July
- June
- May
- April
- March
- February
- January
- ----- 2008 -----
- December
- November
- October
- September
- August
- July
- June
- May
- April
- March
- February
- January
- ----- 2007 -----
- December
- November
- October
- September
- August
- July
- June
- May
- April
- March
- February
- January
- ----- 2006 -----
- December
- November
- October
- September
March 2020
- 1 participants
- 6 discussions
SB KEPS @ AMSAT $ORB20086.N
2Line Orbital Elements 20086.AMSAT
HR AMSAT ORBITAL ELEMENTS FOR AMATEUR SATELLITES IN NASA FORMAT
FROM WA5QGD FORT WORTH,TX March 26, 2020
BID: ORB20086.N
DECODE 2-LINE ELSETS WITH THE FOLLOWING KEY:
1 AAAAAU 00 0 0 BBBBB.BBBBBBBB .CCCCCCCC 00000-0 00000-0 0 DDDZ
2 AAAAA EEE.EEEE FFF.FFFF GGGGGGG HHH.HHHH III.IIII JJ.JJJJJJJJKKKKKZ
KEY: A-CATALOGNUM B-EPOCHTIME C-DECAY D-ELSETNUM E-INCLINATION F-RAAN
G-ECCENTRICITY H-ARGPERIGEE I-MNANOM J-MNMOTION K-ORBITNUM Z-CHECKSUM
TO ALL RADIO AMATEURS BT
AO-07
1 07530U 74089B 20086.88297571 -.00000046 00000-0 -50934-5 0 9994
2 07530 101.7911 057.1153 0012239 161.4741 252.8905 12.53642607075649
UO-11
1 14781U 84021B 20086.77964658 .00000059 00000-0 13300-4 0 9999
2 14781 097.5952 102.8459 0009942 109.9898 250.2388 14.83151904919572
LO-19
1 20442U 90005G 20086.83847551 .00000012 00000-0 20663-4 0 9997
2 20442 098.6840 033.8464 0012561 042.2785 317.9365 14.32948068576726
HUBBLE
1 20580U 90037B 20086.81700231 .00000432 00000-0 15277-4 0 9997
2 20580 028.4689 146.2179 0002447 284.0168 035.4510 15.09358897443464
MET-2/21
1 22782U 93055A 20086.73650606 .00000015 00000-0 -41825-7 0 9996
2 22782 82.5465 299.2355 0023580 106.2423 324.3855 13.83824358341872
AO-27
1 22825U 93061C 20086.88341055 -.00000018 00000-0 11112-4 0 9998
2 22825 098.9237 087.2568 0007382 255.8058 104.2303 14.30080823382014
IO-26
1 22826U 93061D 20086.88916424 -.00000013 00000-0 13030-4 0 9993
2 22826 098.9177 087.2194 0007973 242.6997 117.3373 14.30415823382244
FO-29
1 24278U 96046B 20086.86786998 -.00000033 00000-0 44053-5 0 9993
2 24278 098.5714 207.5615 0349594 228.6111 128.4486 13.53096880165716
NOAA-15
1 25338U 98030A 20086.84673058 .00000013 00000-0 23968-4 0 9994
2 25338 098.7258 112.2838 0011224 139.0770 221.1254 14.25956134137204
GO-32
1 25397U 98043D 20086.72566954 -.00000010 00000-0 15165-4 0 9994
2 25397 098.7211 028.8861 0000693 359.6538 000.4640 14.23681567127788
ISS
1 25544U 98067A 20086.85553436 .00000847 00000-0 23615-4 0 9995
2 25544 51.6456 35.8414 0004954 61.7733 34.1849 15.48920273219252
NO-44
1 26931U 01043C 20086.88192905 -.00000005 00000-0 29674-4 0 9995
2 26931 067.0535 355.4798 0006078 265.2572 094.7836 14.30571114965262
SO-50
1 27607U 02058C 20086.89036639 -.00000008 00000-0 19615-4 0 9992
2 27607 064.5540 266.7984 0058276 198.4317 161.4675 14.75618869928544
CO-55
1 27844U 03031E 20086.83947860 .00000030 00000-0 33214-4 0 9993
2 27844 098.6846 095.8125 0008788 297.7875 062.2411 14.22227795868351
CO-57
1 27848U 03031J 20086.77179498 .00000024 00000-0 30800-4 0 9995
2 27848 098.6916 096.2944 0008816 311.5599 048.4822 14.21815975868193
RS-22
1 27939U 03042A 20086.91576672 .00000116 00000-0 29452-4 0 9992
2 27939 098.0757 222.8971 0011594 252.4800 107.5123 14.66845692881917
NOAA-18
1 28654U 05018A 20086.85248483 .00000085 00000-0 70493-4 0 9997
2 28654 099.0544 142.4707 0015296 103.9345 256.3528 14.12498157765259
CO-58
1 28895U 05043F 20086.29076384 .00000117 00000-0 31367-4 0 9992
2 28895 097.9949 225.0413 0016939 178.5505 181.5750 14.63749402768443
Falconsat-3
1 30776U 07006E 20086.70462862 .00002397 00000-0 65185-4 0 9997
2 30776 035.4345 089.2903 0002366 175.9544 184.1202 15.37410364724096
CO-65
1 32785U 08021C 20086.77923513 .00000197 00000-0 26835-4 0 9994
2 32785 097.5690 078.4546 0014286 051.8172 308.4330 14.88436562645577
AAUSAT2
1 32788U 08021F 20086.72694493 .00000134 00000-0 17242-4 0 9997
2 32788 097.4933 094.9007 0011118 341.4606 018.6209 14.94985714647050
DO-64
1 32789U 08021G 20086.70329110 .00000695 00000-0 49684-4 0 9994
2 32789 97.4286 132.3633 0010772 234.3676 125.6549 15.07543060649446
CO-66
1 32791U 08021J 20086.72125140 .00000297 00000-0 35328-4 0 9994
2 32791 97.5390 84.5384 0013929 24.8916 335.2972 14.90998921646136
RS-30
1 32953U 08025A 20086.90118368 .00000037 00000-0 19437-3 0 9996
2 32953 82.5061 329.2603 0018211 233.7790 126.1605 12.43094644537378
PRISM
1 33493U 09002B 20086.77167625 .00001141 00000-0 10470-3 0 9992
2 33493 98.1389 23.6709 0014296 335.3400 24.7135 14.96953770607342
NOAA-19
1 33591U 09005A 20086.85057009 .00000012 00000-0 32080-4 0 9995
2 33591 099.1970 090.0450 0013187 310.2474 049.7543 14.12399970573470
TISAT-1
1 36799U 10035E 20086.70874965 .00000177 00000-0 23935-4 0 9996
2 36799 098.1859 253.8386 0011132 237.5728 122.4413 14.91300209526596
JUGNU
1 37839U 11058B 20086.65878355 .00000307 00000-0 21657-4 0 9993
2 37839 019.9617 064.8604 0018918 194.8600 321.5446 14.12675279437067
SRMSAT
1 37841U 11058D 20086.54655442 .00000312 00000-0 26167-4 0 9991
2 37841 19.9712 128.1533 0012038 53.5175 99.7907 14.10653585436548
AO-71
1 37854U 11061E 20086.84809965 .00000687 00000-0 42688-4 0 9994
2 37854 101.7063 135.4865 0158658 307.4628 051.2242 15.07093363459036
HRBE
1 37855U 11061F 20086.80659028 .00000995 00000-0 57104-4 0 9995
2 37855 101.7204 132.6161 0171307 320.2515 038.6247 15.06111972458765
ALMASAT-1
1 38078U 12006B 20086.65498661 .00206698 21932-4 32945-3 0 9994
2 38078 69.4138 163.9409 0055596 180.8410 298.1689 16.00444610441911
HORYU-2
1 38340U 12025D 20086.83480669 .00000140 00000-0 28360-4 0 9996
2 38340 098.2913 138.3222 0010311 308.5116 051.5167 14.75824280412365
RS-40
1 38735U 12041C 20086.83976958 .00000011 00000-0 10953-4 0 9999
2 38735 082.4753 052.1658 0016965 346.2289 013.8327 12.42579214347594
BEESAT-3
1 39135U 13015F 20086.76499829 .00001004 00000-0 57984-4 0 9993
2 39135 64.8682 208.4404 0043427 260.1726 99.4496 15.18024052383051
BEESAT-2
1 39136U 13015G 20086.77905822 .00000872 00000-0 53014-4 0 9992
2 39136 064.8668 213.0927 0028910 280.5995 079.1875 15.17399259382577
ZACUBE-1
1 39417U 13066B 20086.88451821 .00000150 00000-0 25145-4 0 9990
2 39417 097.5647 089.5071 0058666 187.1764 172.8617 14.81239638342814
TRITON-1
1 39427U 13066M 20086.86620862 .00000257 00000-0 49046-4 0 9996
2 39427 097.7168 052.4269 0113322 343.0393 016.7036 14.67967500339542
GOMX-1
1 39430U 13066Q 20086.77565819 .00000200 00000-0 44715-4 0 9996
2 39430 97.7832 30.3343 0152495 85.0321 276.8277 14.59363703337742
LO-74
1 39440U 13066AA 20086.85078269 .00000170 00000-0 30834-4 0 9997
2 39440 97.6255 73.9464 0078689 248.0922 111.1909 14.75977769341590
AO-73
1 39444U 13066AE 20086.72702646 .00000224 00000-0 33723-4 0 9990
2 39444 097.5598 091.5397 0057966 180.2523 179.8672 14.82084162341113
SPROUT
1 39770U 14029E 20086.82325643 .00000750 00000-0 88495-4 0 9991
2 39770 97.8909 193.4996 0007841 234.6408 125.4068 14.87660390316772
DUCHIFAT-1
1 40021U 14033M 20086.86141891 .00000280 00000-0 34306-4 0 9992
2 40021 097.9389 017.6164 0012294 193.6816 166.4070 14.90844645313580
NANOSATCBR1
1 40024U 14033Q 20086.77132895 .00000231 00000-0 29849-4 0 9991
2 40024 097.9249 014.1675 0011524 198.1887 161.8920 14.90022610312920
DTUSAT-2
1 40030U 14033W 20086.74481564 .00000224 00000-0 30027-4 0 9997
2 40030 97.9027 8.7200 0011174 201.3241 158.7511 14.88674847313212
EO-80
1 40032U 14033Y 20086.82804221 .00000210 00000-0 28570-4 0 9992
2 40032 097.9034 008.8048 0011122 201.6379 158.4369 14.88622122312699
ANTELSAT
1 40034U 14033AA 20086.66463458 .00000174 00000-0 33179-4 0 9999
2 40034 97.7255 306.2744 0057173 266.2363 93.2308 14.74222929310219
VELOX-1
1 40057U 14034E 20086.76348960 .00000327 00000-0 53198-4 0 9999
2 40057 98.2644 221.5270 0012014 55.1340 305.0996 14.77825829309429
DAURIA DX 1
1 40071U 14037C 20086.77274221 .00000091 00000-0 19167-4 0 9993
2 40071 98.4536 260.6183 0009370 48.3993 311.8021 14.81344710309012
